DELTA 1 DEB

Satellite information

Favourite Embed

Satellite Type and Status

DEBRISIN ORBIT

Key statistics

Satellite DELTA 1 DEB at a glance.

Uptime

17820

Days in orbit

Revolutions

≈ 12.1

Per day

Orbit

SSO

Sun Synchronous Orbit

Inclination

102.8

Latest

Satellite identification and parameters

Extended collection of information and parameters for DELTA 1 DEB.

Object identification

Identified? True

Debris? True

Object name: DELTA 1 DEB

International designator: 1976-077H

Object number (NORAD): 10647

Object ID (CCSDS): 10647

Country: UNITED STATES OF AMERICA (US)

Current information (Y/N): Y

RCS size: MEDIUM

Orbital parameters

Period: 118.882 minutes

Inclination: 102.7572 deg

SMA: 8008.871 km

Apoapsis: 1764.052 km

Periapsis: 1497.42 km

RAAN: 228.4064 deg

Eccentricy: 0.016646

Argument of periapsis: 88.6544 deg

Mean anomaly: 302.6947 deg

Mean motion: 12.11283543 rev/day

Mean motion (dot): -0.000001 rev/day2

B* drag term: -0.00057945 1/REarth

Two-line elements (TLE)

Creation date: May 12, 2025, 7:41 p.m.

Reference frame: TEME

Reference center: EARTH

Epoch: May 12, 2025, 4:45 a.m. UTC

TLE line 0: 0 DELTA 1 DEB

TLE line 1: 1 10647U 76077H 25132.19842922 -.00000100 00000-0 -57945-3 0 9991

TLE line 2: 2 10647 102.7572 228.4064 0166460 88.6544 302.6947 12.11283543157675

Live tracking on map

Real-time ground track for satellite DELTA 1 DEB.

In-orbit conjunctions

A list of the most updated potential collisions computed for object DELTA 1 DEB.

Target Orbit TCA Probability of collision Miss distance Type
COSMOS 1287 LEO 2024-10-17 13:39:04 0.0001236723 603.0 (m) PAYLOAD

Associated space launch

Meteorological satellite using radiometric imaging

DELTA 1 DEB was lifted into orbit during the mission ‘Delta 2310 | NOAA 5’, on board a Delta 2310 space rocket.

The launch took place on July 29, 1976, 5:07 p.m. from Space Launch Complex 2W.

For more information about the launch, click the button.

Launch to space Delta 2310 | NOAA 5
Delta 2310 | NOAA 5

Agency: N/A

Status: Launch Successful

Launch date: July 29, 1976, 5:07 p.m. UTC

Rocket: Delta 2310

Launch pad: Space Launch Complex 2W

Location: Vandenberg SFB, CA, USA

...

Latest news about this satellite

There are no fresh news available about this satellite. Check back as we update our databases every day.


Newsletter sign-up

Weekly statistics, charts and insights to help you stay on top of the space industry.